Current Version              Previous Version:    01  02  03  04  05  06  07  08  09  10  11  12  13  14  15  16  17  18  19  20  21  22  23  24  25  26  27  28  29  30  
   31  32  33  34  35  36  37  38  39  40  41  42  43  44  45  46  47  48  49  50  51  52  53  54  55  56  57  58  59  60  

[Printable]
919
ASUS44 KLUB 291301
RWRTX
WEST TEXAS WEATHER ROUNDUP
NATIONAL WEATHER SERVICE LUBBOCK TX
700 AM CST THU JAN 29 2015

NOTE: "FAIR" INDICATES FEW OR NO CLOUDS BELOW 12,000 FEET WITH NO
SIGNIFICANT WEATHER AND/OR OBSTRUCTIONS TO VISIBILITY.

TXZ004-006>008-010-012-014-016-OKZ002-291400-
TEXAS PANHANDLE/OKLAHOMA PANHANDLE

CITY           SKY/WX    TMP DP  RH WIND       PRES   REMARKS
AMARILLO       MOCLDY    43  33  68 N17G26    30.36R
BORGER         MOCLDY    46  32  58 N16G26    30.37R
CANADIAN       CLOUDY    45  36  70 N9        30.36R
DALHART        CLOUDY    44  31  60 N18       30.40R
GUYMON         CLOUDY    43  31  62 N17       30.39R
$$

TXZ026-029-035-045-048-291400-
SOUTHERN PANHANDLE/SOUTH PLAINS/ROLLING PLAINS

CITY           SKY/WX    TMP DP  RH WIND       PRES   REMARKS
CHILDRESS      PTCLDY   N/A N/A N/A N8        30.30R
LUBBOCK        MOCLDY    44  34  67 N15       30.30R
$$

TXZ052-054-060>062-072-078-127-140-154-169-291400-
PERMIAN BASIN/CONCHO VALLEY/BIG COUNTRY/EDWARDS PLATEAU

CITY           SKY/WX    TMP DP  RH WIND       PRES   REMARKS
ABILENE        MOCLDY    50  39  66 N10       30.22R
BROWNWOOD      PTCLDY    43  37  81 N3        30.19R
JUNCTION       CLEAR     41  37  86 CALM      30.16R
MIDLAND        PTCLDY    43  40  89 NW5       30.20R
ODESSA         PTCLDY    46  39  76 N9        30.21R
SAN ANGELO     CLOUDY    51  42  71 S3        30.18R
WINK           PTCLDY    44  38  79 N9        30.19R
$$

TXZ055-058-074-075-080-082-291400-
FAR WEST/SOUTHWEST MOUNTAINS/TRANS PECOS

CITY           SKY/WX    TMP DP  RH WIND       PRES   REMARKS
DRYDEN           N/A     52  40  63 N8        30.15R
EL PASO        MOCLDY    48  37  65 N12       30.21R
FORT STOCKTON  PTCLDY    52  45  77 W10       30.19
GUADALUPE PASS CLOUDY    50  29  44 NE25      30.26F
MARFA          PTCLDY    39  36  87 N8        30.26R WCI  34
$$

TXZ014-016-019-021>030-083-291400
TEXAS TECH WEST TEXAS MESONET/TEXAS PANHANDLE/NORTHERN SOUTH PLAINS

CITY           SKY/WX    TMP DP  RH WIND       PRES   REMARKS
AMARILLO 9NNE    N/A     45  33  62 N16       30.36R
AMARILLO 7SSE    N/A     43  33  66 N16       30.35R
AMHERST 1NE      N/A     39  33  80 N10       30.32R WCI  32
BOOTLEG 11WNW    N/A     38  31  77 N14       30.38R WCI  30
CANADIAN 6E      N/A     44  33  66 NW13      30.34R
CAPROCK CYN SP   N/A     49  34  56 N18       30.32R
CLARENDON 2WSW   N/A     47  32  56 N15       30.31R
CLAUDE 12SW      N/A     41  33  73 N20       30.33R
DIMMITT 2NE      N/A     38  32  78 N12       30.33S WCI  31
FLOYDADA 2NNE    N/A     40  33  76 N12       30.30R WCI  33
FRIONA 2NE       N/A     37  32  82 N5        30.36R WCI  33
GOODLETT 3W      N/A     49  34  56 N12       30.26R
HART 3N          N/A     38  33  81 N13       30.33R WCI  30
HEREFORD 2NW     N/A     39  32  74 N10       30.34R WCI  32
MCLEAN 1E        N/A     45  33  62 N16       30.30R
MEMPHIS 1NE      N/A     50  34  54 N20       30.27R
MULESHOE 2SSW    N/A     39  34  81 N8        30.34R WCI  34
OLTON 6S         N/A     38  33  80 N13       30.31R WCI  31
PALO DURO SP     N/A     44  33  65 N17       30.35R
PAMPA 2E         N/A     42  34  73 NW18      30.33R
PLAINVIEW 1S     N/A     41  34  76 N9        30.32R
SILVERTON 7ESE   N/A     45  33  62 N13       30.33R
TULIA 2ENE       N/A     34  31  90 N9        30.34R WCI  26
TURKEY 2WSW      N/A     45  35  67 NW9       30.31R
UMBARGER 3NNE    N/A     41  33  71 N15       30.35R
$$

TXZ033>036-039>041-045>048-291400
TEXAS TECH WEST TEXAS MESONET/SOUTH PLAINS

CITY           SKY/WX    TMP DP  RH WIND       PRES   REMARKS
AIKEN 3WSW       N/A     37  32  83 N12       30.33R WCI  29
ANDREWS 2NE      N/A     45  36  70 N14       30.23R
ANTON 6SSW       N/A     39  34  80 N10       30.31R WCI  32
DENVR CTY 7WNW   N/A     38  33  82 N10       30.27R WCI  31
GAIL 2ESE        N/A     49  34  55 N13       30.24R
LAMESA 2SE       N/A     46  35  64 NE13      30.25R
LEVELLAND 4S     N/A     40  32  74 N12       30.30R WCI  33
LUBBOCK 3WNW     N/A     45  33  61 N8        30.30R
MORTON 1ENE      N/A     40  34  77 N15       30.32R WCI  32
ODONNELL 1N      N/A     44  33  65 NE13      30.26R
PLAINS 3N        N/A     41  34  74 N12       30.30R
RALLS 1SE        N/A     43  33  69 N10       30.30R
REESE CENTER     N/A     38  32  79 N8        30.31R WCI  32
SEAGRAVES 1SW    N/A     44  34  68 N10       30.29R
SEMINOLE 2NNE    N/A     45  34  65 NE16      30.26R
SLATON 2NE       N/A     44  33  65 NE10      30.28R
SNYDER 3E        N/A     49  35  56 N16       30.24R
SUNDOWN 8SW      N/A     41  33  73 N10       30.31R
TAHOKA 3NNE      N/A     44  33  64 NE10      30.27R
WOLFFORTH 6SSW   N/A     43  35  73 N9        30.30R
$$

TXZ031-032-036>038-042>044-291400-
TEXAS TECH WEST TEXAS MESONET/ROLLING PLAINS

CITY           SKY/WX    TMP DP  RH WIND       PRES   REMARKS
ASPERMONT 3NE    N/A     44  36  73 NW3       30.26R
FLUVANNA 3WNW    N/A     50  33  52 N16       30.25R
GRAHAM 5SSW      N/A     46  33  59 N17       30.26R
GUTHRIE 10WSW    N/A     50  34  54 N13       30.26R
HASKELL 1NW      N/A     46  36  67 N10       30.23R
JAYTON 1SSE      N/A     49  35  56 N12       30.26R
KNOX CITY 3NW    N/A     42  35  76 N7        30.25R
LK A HENRY 1NW   N/A     50  33  52 NE13      30.27R
NORTHFIELD 1S    N/A     43  34  72 W3        30.30R
ODELL 4ENE       N/A     44  35  71 NW6       30.26R
PADUCAH 10SW     N/A     48  34  59 NW14      30.28R
POST 1NE         N/A     49  33  54 N9        30.27R
RRING SPRGS 3N   N/A     47  35  63 N13       30.30R
SEYMOUR 3NW      N/A     44  35  72 NW6       30.24R
SPUR 1W          N/A     51  33  49 N13       30.26R
WEINERT 2NNE     N/A     45  36  70 N8        30.25R
WHITE RVR 6NE    N/A     49  33  54 N13       30.27R
$$

TXZ052-054-060>062-072-078-127-140-154-169-291400-
TEXAS TECH WEST TEXAS MESONET/PERMIAN BASIN/
CONCHO VALLEY/BIG COUNTRY/EDWARDS PLATEAU

CITY           SKY/WX    TMP DP  RH WIND       PRES   REMARKS
COYANOSA 2N      N/A     44  42  93 W6        30.18R
JUNCTION 1SSW    N/A     37  35  94 CALM      30.18R
MERTZON 3NNE     N/A     52  40  64 N2        30.20R
SAN ANGELO 7NW   N/A     53  38  57 N3        30.19R
STRLNG CT 4WSW   N/A     44  38  79 SW2       30.21R
ST LAWRNCE 5SW   N/A     45  38  78 N8        30.19R
SWEETWATR 11SW   N/A     49  37  64 NE13      30.24R
WALL 1E          N/A     52  41  66 CALM      30.19R
$$

TXZ055-058-074-075-080-082-291400-
TEXAS TECH WEST TEXAS MESONET/FAR WEST/SOUTHWEST MOUNTAINS/TRANS PECOS

CITY           SKY/WX    TMP DP  RH WIND       PRES   REMARKS
PRSMN GAP BBNP   N/A     48  43  82 CALM      30.17R
GUADLPE MTN NP   N/A     51  27  38 NE6       30.29R
$$